This is the latest recevied weather packets stored in our database for station/object HS2XQB-3. If no packets are shown the sender has not sent any weather packets the latest 10 day(s).
| Time | Temp. | Humidity | Pressure | Rain* | Wind** | Luminosity | Snow |
|---|---|---|---|---|---|---|---|
| 1777651352 | 24.44° C | 72% | 1006 hPa | - | - | 0 W/m² | - |
| 1777649530 | 24.44° C | 67% | 1006 hPa | - | - | 0 W/m² | - |
| 1777647708 | 23.89° C | 62% | 1006 hPa | - | - | 0 W/m² | - |
| 1777645886 | 23.89° C | 67% | 1006 hPa | - | - | 0 W/m² | - |
| 1777644064 | 24.44° C | 70% | 1005 hPa | - | - | 0 W/m² | - |
| 1777642242 | 24.44° C | 64% | 1005 hPa | - | - | 0 W/m² | - |
| 1777640420 | 23.89° C | 58% | 1004 hPa | - | - | 0 W/m² | - |
| 1777638598 | 24.44° C | 66% | 1004 hPa | - | - | 0 W/m² | - |
| 1777636778 | 23.89° C | 55% | 1004 hPa | - | - | 0 W/m² | - |
| 1777634954 | 24.44° C | 54% | 1003 hPa | - | - | 0 W/m² | - |
| 1777633131 | 25° C | 58% | 1002 hPa | - | - | 0 W/m² | - |
| 1777631309 | 24.44° C | 46% | 1002 hPa | - | - | 0 W/m² | - |
| 1777629487 | 25° C | 45% | 1002 hPa | - | - | 0 W/m² | - |
| 1777627665 | 25.56° C | 46% | 1002 hPa | - | - | 0 W/m² | - |
| 1777625842 | 26.11° C | 44% | 1002 hPa | - | - | 0 W/m² | - |
| 1777624020 | 25.56° C | 45% | 1003 hPa | - | - | 0 W/m² | - |
| 1777622198 | 26.67° C | 43% | 1003 hPa | - | - | 0 W/m² | - |
| 1777620376 | 26.11° C | 44% | 1004 hPa | - | - | 0 W/m² | - |
| 1777618554 | 26.11° C | 43% | 1004 hPa | - | - | 0 W/m² | - |
| 1777616732 | 27.78° C | 44% | 1005 hPa | - | - | 0 W/m² | - |
| 1777614911 | 27.78° C | 46% | 1005 hPa | - | - | 0 W/m² | - |
| 1777613088 | 26.67° C | 44% | 1006 hPa | - | - | 0 W/m² | - |
| 1777611266 | 26.67° C | 45% | 1006 hPa | - | - | 0 W/m² | - |
| 1777609444 | 27.22° C | 47% | 1006 hPa | - | - | 0 W/m² | - |
| 1777607622 | 25.56° C | 47% | 1006 hPa | - | - | 0 W/m² | - |
* Rain since midnight (hover to see other rain measurements)
** Current wind speed in m/s (hover to see current wind gust speed)